Regional Weather Roundup
Issued by NWS

Home | Current Version | Previous Version | Text Only | Print | Product List | Glossary On
Versions: 1 2 3 4 5 6 7 8 9 10 11 12 13 14 15 16 17 18 19 20 21 22 23 24 25 26 27 28 29 30 31 32 33 34 35 36 37 38 39 40 41 42 43 44 45 46 47 48 49 50
000
ASUS44 KBMX 230410
RWRAL

ALABAMA REGIONAL WEATHER ROUNDUP
NATIONAL WEATHER SERVICE BIRMINGHAM AL
1000 PM CST SAT NOV 22 2014

NOTE: "FAIR" INDICATES FEW OR NO CLOUDS BELOW 12,000 FEET
WITH NO SIGNIFICANT WEATHER AND/OR OBSTRUCTIONS TO VISIBILITY.

THE REMARK "TC" DENOTES TEMPERATURE IN DEGREES CELSIUS.

ALZ001>011-014-016>018-020-230500-
NORTH ALABAMA

CITY           SKY/WX    TMP DP  RH WIND       PRES   REMARKS
MUSCLE SHOALS  CLOUDY    58  46  64 E5        30.10F
HUNTSVILLE     CLOUDY    59  40  49 SE13      30.11F
DECATUR        CLOUDY    59  43  55 SE12      30.11F
HALEYVILLE     CLOUDY    59  49  69 SE12      30.11F
GADSDEN        CLOUDY    59  37  44 E6        30.16F
$$

ALZ012-013-022-023-030>036-040>044-230500-
WEST CENTRAL ALABAMA

CITY           SKY/WX    TMP DP  RH WIND       PRES   REMARKS
TUSCALOOSA     CLOUDY    62  53  72 SE9G17    30.09F
$$

ALZ015-024>027-033>036-040>044-230500-
CENTRAL ALABAMA

CITY           SKY/WX    TMP DP  RH WIND       PRES   REMARKS
BIRMINGHAM     CLOUDY    58  49  72 SE13G21   30.13F
MONTGOMERY     CLOUDY    58  51  78 E10       30.12F
SHELBY CO ARPT CLOUDY    58  51  78 E8        30.12F
MAXWELL AFB    CLOUDY    57  52  82 E9        30.11F
GREENVILLE     LGT RAIN  58  55  90 E8        30.09F
$$

ALZ019-021-028-029-037-038-045>048-230500-
EAST CENTRAL ALABAMA

CITY           SKY/WX    TMP DP  RH WIND       PRES   REMARKS
ANNISTON       CLOUDY    59  40  49 E9G18     30.17F
ALEXANDER CITY DRIZZLE   58  49  72 E6        30.16F
AUBURN         CLOUDY    54  46  76 E15       30.17F
$$

ALZ051>064-230500-
SOUTHWEST ALABAMA

CITY           SKY/WX    TMP DP  RH WIND       PRES   REMARKS
MOBILE         CLOUDY    59  59 100 E13       30.01F FOG
BROOKLEY FIELD CLOUDY    61  59  93 NE8       30.03F
EVERGREEN      LGT RAIN  61  58  90 E10       30.07F
$$

ALZ049-050-065>069-230500-
SOUTHEAST ALABAMA

CITY           SKY/WX    TMP DP  RH WIND       PRES   REMARKS
DOTHAN         LGT RAIN  59  58  96 E17       30.13F FOG
OZARK          LGT RAIN  59  59 100 E7        30.10S FOG
TROY           CLOUDY    58  54  86 E8        30.12F
EUFAULA        CLOUDY    59  53  80 E8        30.13F
$$


USA.gov is the U.S. government's official web portal to all federal, state and local government web resources and services.